Location: Erfurt
(50.9688°N, 11.0193°E)
Time: 16:36:09
(UTC+01:00)

ISS - Pass Details

Date: 14 November 2017
Orbit: 402 x 407 km, 51.6° (Epoch: 22 November)

Event Time Altitude Azimuth Distance (km) Brightness Sun altitude
Exits shadow 05:45:15 34° 232° (SW) 688 -3.0 -16.4°
Maximum altitude 05:45:46 36° 208° (SSW) 651 -3.0 -16.4°
Drops below altitude 10° 05:48:48 10° 140° (SE) 1,452 -0.3 -15.9°
Sets 05:50:57 0° 132° (SE) 2,308 1.0 -15.5°
